Tracking 31027 objects as of 19-Jul-2025
HD Live streaming from Space Station
objects crossing your sky now

COSMOS 2251 DEB

Track COSMOS 2251 DEB now!
10-day predictions


NORAD ID: 34011
Int'l Code: 1993-036GW
Perigee: 734.6 km
Apogee: 791.6 km
Inclination: 74.0 °
Period: 99.9 minutes
Semi major axis: 7134 km
RCS: 0.04 m2 (small)
Launch date: June 16, 1993
Source: Commonwealth of Independent States (former USSR) (CIS)
Launch site: PLESETSK MISSILE AND SPACE COMPLEX (PKMTR)

Note: This is SATELLITE DEBRIS
Your satellite tracking list
KHAYYAM
Track 1 satellite(s)




NASA's NSSDC Master Catalog

Two Line Element Set (TLE):
1 34011U 93036GW  25199.39278431  .00001434  00000-0  45234-3 0  9996
2 34011  74.0121 243.3144 0039967   2.3614 357.7721 14.40757729857937
Source of the keplerian elements: AFSPC